Simultaneous Nadir Overpasses (SNOs) Predictions

Prediction of SNOs between METOP-C and LANDSAT-8 Satellite Orbit:

Table of predicted SNOs for the next 14.0 days since TLE Epoch: 1/9/2021
Index Date (METOP-C) Time (METOP-C) Lat,Lon (METOP-C) SZA (METOP-C ) Date (LANDSAT-8) Time (LANDSAT-8) Lat,Lon (LANDSAT-8) SZA (LANDSAT-8 ) Distance(km) Time Diff (sec)
1 01/09/2021 16:47:09 81.06, -33.17 104.71 01/09/2021 16:47:54 81.06, -33.08 104.74 1.46 45
2 01/09/2021 17:37:48 -81.08, 134.74 75.23 01/09/2021 17:37:20 -81.08, 134.85 75.23 1.99 28
3 01/12/2021 12:21:32 81.06, 33.25 104.25 01/12/2021 12:22:08 81.06, 33.31 104.26 1.08 36
4 01/12/2021 13:12:10 -81.10,-158.40 75.64 01/12/2021 13:11:33 -81.10,-158.37 75.65 0.77 37
5 01/15/2021 07:55:54 81.08, 100.03 103.78 01/15/2021 07:56:21 81.08, 100.04 103.79 0.23 27
6 01/15/2021 08:46:33 -81.10, -91.93 76.15 01/15/2021 08:45:47 -81.10, -91.99 76.18 1.03 46
7 01/18/2021 03:30:16 81.07, 166.43 103.20 01/18/2021 03:30:34 81.07, 166.37 103.20 1.12 18
8 01/18/2021 04:20:55 -81.10, -25.46 76.72 01/18/2021 04:20:00 -81.09, -25.63 76.76 3.10 55
9 01/20/2021 23:04:38 81.09,-126.82 102.63 01/20/2021 23:04:47 81.08,-126.97 102.62 2.59 9



Historial Predications of SNOs between METOP-C and LANDSAT-8
